Wind_Speed
14 14 14 14 16 14 12 12 11 11 10 10 9 9 9 8 8 8 8 8 8 7 8 8 7 7 7 7 7 8 8 8 7 7 7 7 7 6 6 7 6 6 7 6 6 6 5 6 5
13 14 14 15 15 11 12 11 11 11 11 11 10 9 9 7 7 8 8 7 8 8 7 8 8 8 7 7 8 8 8 8 8 7 7 7 7 7 6 6 6 6 6 6 6 5 5 6 6
13 13 13 14 12 11 12 12 11 11 11 11 10 9 9 8 8 8 8 8 8 8 7 7 7 7 6 7 7 7 7 7 7 7 7 6 5 6 6 5 6 6 6 6 5 5 5 6 7
12 12 14 13 11 12 12 11 10 11 11 11 10 10 9 8 8 8 9 8 8 7 7 7 7 7 6 7 7 7 7 7 7 7 6 6 5 5 5 5 5 5 5 5 5 5 6 6 6
12 13 13 11 11 11 12 11 10 11 11 11 10 10 9 8 8 8 8 8 7 7 7 7 7 6 6 6 6 6 6 6 6 6 5 5 5 5 5 5 5 5 5 5 5 6 6 6 6
12 12 10 10 10 11 11 12 11 11 10 10 9 9 10 8 8 8 7 8 7 7 7 7 7 6 6 6 6 6 6 6 6 6 5 5 5 5 5 5 5 6 5 5 4 5 5 5 5
12 12 10 10 11 11 11 11 11 11 11 10 9 9 9 9 8 8 8 7 7 6 6 6 6 5 5 5 5 5 5 5 6 5 5 5 4 4 4 4 4 4 4 4 4 4 5 5 5
11 12 10 10 10 11 11 11 10 10 10 9 9 9 9 9 8 8 7 7 6 6 6 5 5 4 4 5 5 5 5 5 4 4 5 4 4 3 3 3 4 4 4 3 3 3 4 4 4
11 12 10 10 10 11 11 11 10 10 9 9 9 9 9 8 9 8 8 7 6 6 6 5 5 4 4 5 5 5 5 4 4 4 4 4 3 3 3 3 3 4 4 3 2 3 3 3 4
10 10 9 9 10 10 11 11 11 10 9 9 9 9 9 8 9 8 7 7 6 6 6 6 5 5 5 5 6 5 5 4 5 4 4 4 3 3 3 2 2 3 3 3 2 2 3 3 3
9 8 8 9 9 10 10 11 11 10 10 10 9 9 9 8 8 7 7 7 6 6 5 5 5 5 5 5 6 5 5 5 5 4 4 3 3 3 3 2 2 2 2 2 2 3 3 4 3
8 8 7 7 8 9 10 11 10 9 9 10 9 9 8 7 7 7 7 7 6 6 6 5 6 6 5 5 5 5 4 5 5 4 4 3 3 2 3 2 2 1 2 2 2 3 2 3 3
7 7 6 6 7 8 9 10 9 9 9 9 9 8 7 7 7 7 7 7 6 6 6 6 7 6 6 5 4 4 4 4 4 4 4 3 3 2 3 2 1 2 2 2 2 3 3 4 4
6 6 6 5 6 7 7 8 8 8 8 9 8 7 7 6 7 7 7 6 6 5 6 6 6 6 6 5 4 4 4 4 4 4 4 3 3 3 2 1 1 1 2 2 3 3 3 3 3
4 5 4 4 4 5 6 7 7 6 7 7 7 6 6 6 6 6 6 6 5 5 6 5 6 5 5 5 4 4 4 5 5 4 4 4 4 3 3 2 1 1 1 1 1 1 2 2 3
3 4 3 3 3 4 5 6 5 4 5 6 5 5 5 5 5 5 5 5 5 5 5 5 5 5 5 4 4 4 4 4 5 4 4 4 3 3 3 3 3 2 2 1 1 1 2 2 2
1 1 1 2 3 3 3 3 3 3 4 4 4 4 4 3 4 4 4 5 5 5 5 5 5 5 5 4 4 4 4 4 4 4 4 4 4 4 4 4 3 3 3 2 2 2 1 1 1
4 3 1 2 3 3 3 3 3 3 3 3 3 3 3 2 2 3 3 3 4 4 5 5 4 4 4 4 4 4 4 4 3 4 4 4 4 4 4 4 4 3 3 3 2 2 1 1 1
6 5 3 3 2 2 3 3 3 3 3 3 2 2 2 1 2 2 2 2 3 3 4 4 3 4 4 4 3 3 3 3 3 2 3 3 3 4 4 5 4 4 4 3 2 2 1 1 3
8 6 5 5 4 4 4 4 4 4 4 3 2 1 1 0 0 0 1 1 2 3 3 3 3 3 3 3 3 2 2 2 2 2 2 2 2 3 3 4 5 4 4 4 3 2 2 2 3
10 8 8 7 6 5 5 6 5 4 4 3 2 2 2 2 1 1 1 1 1 2 2 2 3 2 2 2 2 2 2 1 2 2 1 2 3 2 3 4 4 4 4 4 4 3 3 3 3
11 11 9 8 7 6 6 6 6 5 4 4 3 2 3 3 3 2 2 2 2 2 1 1 2 2 1 1 1 1 1 1 1 2 2 2 3 3 3 3 3 3 3 3 4 3 4 4 5
14 12 11 10 8 8 8 7 7 6 5 4 4 3 4 4 4 4 4 3 3 3 2 2 2 1 2 2 1 1 1 1 1 1 2 2 2 3 3 3 3 3 3 3 3 4 5 5 5
14 13 12 11 10 10 9 9 8 6 6 5 5 5 4 5 5 5 5 5 4 4 4 4 3 3 3 3 2 2 2 2 1 1 2 2 2 2 2 2 3 3 4 4 4 4 5 6 6
15 13 11 11 11 12 11 10 10 9 7 6 6 6 6 6 6 6 6 6 6 5 5 5 4 4 4 3 3 3 3 3 2 2 2 3 3 3 2 2 3 3 4 4 5 6 6 6 7
17 15 14 13 12 12 13 11 11 10 8 7 7 7 8 7 7 8 8 7 7 7 7 6 6 5 5 4 4 4 3 3 3 3 3 3 3 3 3 3 3 4 5 6 6 7 7 7 8
19 18 17 16 15 13 12 12 12 11 9 9 9 8 8 8 9 9 9 8 8 7 8 7 7 6 6 6 5 5 5 4 4 4 4 4 4 4 4 4 5 6 7 7 8 8 8 8 9
20 19 19 18 16 14 13 12 11 11 11 10 9 9 10 10 10 10 10 9 9 8 9 9 8 8 8 8 7 7 6 5 5 5 5 6 6 5 6 6 6 7 8 9 9 10 9 10 10
20 21 19 18 17 15 14 13 13 13 11 10 10 10 10 11 12 12 11 10 10 9 9 10 10 10 9 9 8 8 8 7 7 7 7 8 7 7 7 8 8 9 10 11 11 11 11 11 12
21 21 20 20 19 18 16 15 14 14 13 12 12 11 11 12 12 12 12 11 11 11 11 12 12 11 11 10 10 9 9 9 9 9 9 9 9 9 9 9 10 11 12 12 13 13 13 13 13
Wind_Direction
76 76 77 77 73 71 75 74 74 79 82 87 92 94 97 99 103 106 108 107 110 107 104 107 107 109 112 116 115 115 118 125 127 128 134 141 141 141 144 152 157 157 158 163 166 168 172 179 185
77 75 75 73 75 74 70 69 71 78 79 84 90 94 97 97 99 101 107 109 110 106 103 106 107 107 110 117 121 121 124 126 129 131 132 138 144 144 144 153 162 163 162 165 165 170 177 184 194
77 73 72 71 74 74 70 67 71 77 78 79 86 94 99 98 94 99 104 107 108 106 106 104 103 100 106 118 122 124 129 130 129 131 133 137 143 148 155 161 165 164 167 167 172 179 188 191 196
75 75 69 69 70 69 67 64 75 77 75 77 84 91 98 97 95 99 101 102 106 107 103 101 98 98 106 115 120 124 132 134 132 135 137 137 139 147 149 157 167 165 170 174 184 192 193 196 203
76 74 67 65 66 66 66 64 76 80 74 75 80 86 89 91 93 101 104 103 103 102 101 99 99 97 102 110 117 125 128 137 138 134 137 139 138 144 147 153 162 163 169 178 192 203 207 210 215
77 72 72 66 64 66 63 60 64 74 76 77 81 83 85 90 94 101 107 109 109 107 102 98 95 92 96 108 119 124 128 137 140 138 141 143 142 143 152 157 162 174 178 187 198 208 218 219 222
80 77 70 66 65 65 62 59 68 71 72 75 80 84 87 89 93 102 109 109 111 111 107 101 95 87 89 104 118 121 126 131 137 137 143 145 143 145 160 167 173 185 195 198 203 210 214 225 227
80 76 67 68 68 64 59 59 67 68 69 72 79 85 86 88 89 98 110 113 113 114 110 100 91 91 89 100 113 115 121 130 138 140 141 144 147 146 149 171 184 185 188 201 204 203 214 227 236
84 79 73 71 68 63 58 58 64 67 67 70 78 87 86 87 87 93 101 105 104 105 107 99 91 93 98 108 115 116 122 128 136 136 139 136 135 138 147 157 169 172 173 186 197 212 232 241 243
87 85 77 72 69 64 58 58 63 68 66 68 74 82 85 85 86 89 92 94 94 95 96 93 88 92 98 113 112 115 121 127 134 135 137 134 130 133 154 165 173 188 185 195 213 228 245 251 259
86 84 78 72 70 66 61 57 62 66 66 69 73 80 83 83 84 87 90 90 90 90 91 90 96 95 95 102 105 108 113 114 125 131 133 131 128 129 146 153 150 171 176 193 219 235 247 256 269
88 86 84 76 71 67 63 60 60 62 64 63 69 76 77 76 78 81 88 91 92 89 83 82 92 94 98 100 101 105 109 107 115 120 123 123 126 143 146 146 146 188 196 207 222 234 242 254 261
95 91 87 83 76 71 66 63 62 62 63 61 63 69 71 71 73 79 86 87 89 84 80 83 86 93 93 92 88 97 100 104 107 111 116 118 124 133 147 156 170 211 226 230 234 248 244 240 253
104 91 86 82 75 70 69 63 61 60 62 62 59 62 66 72 74 77 79 80 81 81 78 81 84 90 85 84 84 90 96 88 88 101 103 100 96 95 96 128 179 216 218 233 247 268 258 268 270
103 80 69 70 76 64 64 60 52 53 56 59 58 59 63 70 76 78 80 77 80 80 76 80 81 80 77 76 80 87 92 92 93 92 87 86 81 74 67 52 27 334 332 319 311 287 270 280 267
99 64 50 46 54 59 55 54 52 53 47 53 56 58 62 71 74 74 75 74 76 76 79 77 77 73 71 77 85 87 83 88 88 82 82 80 73 62 53 43 40 29 24 21 333 296 276 286 275
110 85 33 14 24 32 42 40 33 39 40 39 47 53 59 64 68 71 74 73 72 73 77 78 76 70 69 76 88 95 86 84 85 78 74 74 68 56 46 41 36 32 35 30 2 332 293 297 289
214 211 256 330 360 7 20 14 7 6 11 19 39 49 56 65 71 73 75 70 67 70 70 74 73 71 70 79 87 96 89 82 80 79 71 66 66 57 48 46 53 52 41 26 16 8 343 331 315
224 227 248 286 301 321 336 336 336 333 339 347 17 41 46 69 84 77 62 53 63 67 69 62 62 64 68 79 80 89 87 82 79 71 67 66 62 53 53 48 53 57 48 36 13 2 360 317 320
232 236 248 268 279 288 305 312 315 319 322 322 333 346 3 343 139 47 353 11 36 61 57 53 54 56 67 79 74 74 72 74 71 65 66 56 48 42 52 57 61 62 54 43 33 29 12 330 326
239 243 247 254 263 277 294 307 310 321 322 320 313 311 306 295 284 293 318 332 359 33 45 47 44 46 57 66 63 75 73 61 58 55 31 19 28 45 47 53 53 53 47 39 36 24 360 348 336
240 246 250 253 260 273 279 284 293 306 310 310 305 297 284 280 274 271 285 295 304 320 341 356 6 18 11 16 36 42 27 33 38 32 30 19 24 29 29 31 33 28 25 25 20 1 350 341 334
238 245 251 254 255 263 272 271 281 280 288 298 295 288 274 269 276 275 276 285 285 286 293 304 306 324 336 331 328 341 353 355 349 356 4 6 14 17 16 13 15 9 2 4 6 352 339 334 327
237 244 251 254 257 261 263 262 271 267 274 285 283 281 279 267 270 275 275 279 285 281 286 293 295 303 307 307 310 333 337 324 322 314 317 325 340 350 359 356 352 350 348 351 344 341 335 328 324
239 242 254 261 261 261 262 259 262 265 269 271 268 267 269 270 265 269 275 277 281 279 281 279 284 289 289 289 303 312 312 306 312 310 300 303 313 319 325 330 332 337 337 335 337 334 332 325 320
240 238 241 247 256 262 264 263 264 268 270 268 265 264 260 263 266 268 271 275 276 276 272 270 274 278 276 276 292 300 295 297 300 306 310 307 307 302 306 314 324 327 327 328 326 326 324 320 316
241 241 243 248 254 258 259 261 264 267 269 269 267 262 258 260 260 262 265 269 271 271 267 269 270 271 271 274 280 281 282 284 292 297 309 312 312 312 309 308 307 310 314 316 316 317 316 314 315
241 244 245 242 248 254 260 261 265 268 270 268 265 261 257 261 260 262 264 267 269 270 268 265 268 272 273 272 273 274 274 277 286 293 303 300 293 297 301 302 303 308 311 309 308 309 310 309 307
242 240 241 242 242 245 254 256 261 265 266 264 265 266 265 263 262 262 265 267 267 269 269 266 268 272 273 272 273 275 276 276 283 287 293 298 292 290 292 296 300 304 306 306 304 304 305 303 303
240 240 239 240 244 243 246 256 260 260 262 262 264 266 270 268 263 262 261 263 264 268 266 264 266 270 272 271 270 274 276 275 280 286 291 295 293 290 292 295 297 299 303 304 303 302 302 299 300
Height
5900 5899 5899 5899 5899 5900 5898 5897 5895 5894 5893 5892 5891 5891 5891 5891 5892 5894 5891 5890 5890 5890 5890 5890 5890 5889 5889 5889 5889 5889 5889 5889 5889 5889 5889 5889 5889 5889 5890 5890 5891 5891 5892 5893 5894 5894 5895 5896 5897
5902 5901 5901 5901 5902 5901 5900 5898 5896 5895 5894 5893 5892 5892 5891 5891 5892 5892 5891 5891 5891 5890 5891 5891 5891 5890 5890 5890 5890 5890 5890 5890 5890 5890 5890 5890 5890 5890 5890 5891 5891 5892 5892 5893 5894 5895 5895 5896 5897
5903 5903 5903 5903 5903 5902 5901 5899 5897 5896 5895 5893 5893 5893 5893 5893 5892 5892 5892 5892 5892 5891 5892 5892 5891 5891 5891 5891 5891 5891 5891 5891 5891 5891 5891 5891 5891 5891 5891 5891 5892 5892 5893 5893 5894 5895 5895 5896 5897
5905 5905 5905 5906 5904 5904 5902 5901 5899 5897 5896 5895 5894 5894 5893 5893 5893 5893 5893 5893 5893 5893 5893 5893 5893 5893 5892 5892 5892 5892 5892 5892 5891 5891 5891 5891 5891 5891 5891 5891 5892 5892 5893 5893 5894 5894 5895 5896 5896
5906 5907 5908 5908 5906 5905 5904 5902 5900 5899 5898 5897 5896 5895 5895 5895 5894 5894 5894 5894 5894 5894 5894 5894 5894 5894 5893 5893 5892 5892 5892 5892 5892 5892 5892 5892 5891 5891 5892 5891 5892 5892 5892 5893 5894 5895 5895 5896 5896
5909 5909 5911 5909 5908 5906 5905 5903 5902 5900 5900 5899 5898 5897 5896 5896 5895 5895 5895 5895 5895 5895 5895 5895 5895 5894 5894 5894 5893 5893 5893 5893 5893 5892 5892 5892 5892 5892 5892 5892 5892 5892 5893 5894 5894 5895 5895 5896 5896
5911 5911 5911 5910 5909 5908 5907 5905 5903 5902 5901 5900 5899 5899 5898 5897 5897 5897 5897 5896 5896 5896 5896 5896 5895 5895 5895 5894 5894 5894 5894 5893 5893 5893 5892 5892 5893 5893 5892 5892 5893 5893 5893 5894 5894 5894 5895 5895 5895
5912 5914 5913 5912 5911 5910 5908 5906 5905 5904 5903 5902 5901 5900 5900 5899 5898 5898 5898 5898 5898 5897 5897 5897 5896 5896 5895 5895 5894 5894 5894 5894 5894 5893 5893 5893 5893 5893 5893 5893 5893 5893 5893 5893 5894 5894 5894 5894 5894
5914 5916 5915 5914 5913 5911 5909 5908 5907 5905 5904 5903 5902 5902 5901 5901 5900 5900 5900 5899 5899 5899 5898 5898 5897 5896 5896 5895 5895 5895 5894 5894 5894 5894 5894 5894 5893 5893 5893 5893 5893 5893 5893 5893 5893 5894 5894 5894 5894
5916 5917 5916 5915 5914 5913 5911 5909 5908 5907 5906 5905 5904 5903 5902 5902 5902 5901 5901 5901 5900 5900 5899 5899 5898 5897 5897 5896 5896 5895 5895 5895 5895 5894 5894 5894 5893 5893 5893 5893 5893 5893 5893 5893 5893 5893 5893 5893 5893
5917 5917 5916 5916 5915 5913 5912 5911 5910 5909 5908 5906 5905 5905 5904 5903 5903 5903 5902 5902 5901 5901 5900 5900 5899 5898 5898 5897 5897 5896 5896 5895 5895 5895 5894 5894 5894 5893 5893 5893 5893 5893 5892 5892 5892 5893 5892 5893 5893
5919 5918 5917 5917 5916 5915 5913 5912 5911 5910 5910 5908 5907 5906 5905 5905 5904 5904 5903 5903 5903 5902 5901 5900 5899 5899 5898 5898 5897 5897 5896 5896 5895 5895 5895 5894 5894 5894 5894 5893 5893 5893 5893 5892 5892 5892 5892 5892 5892
5920 5919 5919 5918 5917 5916 5915 5914 5913 5912 5911 5909 5908 5908 5907 5906 5906 5905 5905 5904 5903 5903 5902 5901 5900 5900 5899 5899 5898 5898 5897 5897 5896 5895 5895 5895 5894 5894 5894 5893 5893 5893 5892 5892 5892 5892 5892 5892 5892
5921 5921 5920 5919 5918 5917 5917 5915 5914 5913 5912 5911 5910 5909 5909 5908 5907 5906 5906 5905 5904 5904 5903 5902 5901 5900 5900 5899 5899 5898 5898 5897 5896 5896 5896 5895 5895 5894 5894 5893 5893 5892 5891 5891 5891 5891 5891 5891 5891
5922 5922 5922 5920 5920 5919 5918 5917 5916 5915 5914 5913 5912 5911 5910 5909 5908 5908 5907 5906 5906 5905 5904 5903 5902 5901 5901 5900 5899 5899 5898 5898 5897 5897 5896 5896 5895 5894 5894 5893 5892 5891 5891 5890 5890 5890 5890 5891 5890
5922 5923 5923 5922 5920 5920 5920 5919 5917 5916 5915 5914 5913 5912 5911 5911 5910 5909 5908 5908 5907 5906 5904 5904 5903 5902 5901 5901 5900 5900 5899 5898 5898 5898 5897 5896 5895 5895 5894 5893 5892 5891 5890 5890 5890 5890 5890 5890 5890
5923 5924 5924 5923 5921 5920 5920 5919 5918 5916 5916 5915 5914 5913 5912 5912 5911 5910 5909 5909 5908 5907 5906 5905 5904 5903 5902 5902 5901 5900 5900 5899 5899 5898 5898 5897 5896 5895 5894 5892 5891 5891 5890 5890 5890 5890 5890 5890 5890
5924 5924 5924 5923 5922 5921 5920 5919 5918 5917 5916 5916 5915 5914 5913 5913 5912 5911 5910 5910 5909 5908 5907 5906 5905 5904 5903 5902 5902 5901 5901 5900 5899 5899 5898 5898 5897 5896 5895 5893 5892 5891 5891 5891 5890 5890 5890 5890 5890
5922 5923 5923 5922 5922 5921 5920 5919 5918 5917 5917 5916 5915 5914 5914 5913 5913 5912 5912 5911 5910 5909 5908 5907 5906 5905 5904 5903 5903 5902 5902 5901 5900 5900 5899 5898 5898 5897 5896 5894 5893 5893 5892 5892 5891 5891 5890 5890 5890
5921 5922 5922 5922 5921 5921 5920 5919 5918 5917 5917 5916 5915 5915 5914 5913 5913 5913 5912 5911 5910 5909 5908 5907 5907 5906 5905 5904 5903 5903 5902 5901 5901 5900 5900 5899 5898 5897 5897 5896 5895 5894 5893 5892 5892 5891 5891 5890 5889
5919 5920 5921 5921 5920 5920 5920 5919 5918 5917 5916 5916 5915 5914 5914 5913 5913 5913 5912 5911 5911 5910 5909 5908 5907 5906 5905 5905 5904 5903 5903 5902 5901 5901 5900 5900 5899 5898 5897 5896 5896 5895 5894 5893 5892 5891 5891 5890 5889
5917 5918 5919 5919 5919 5920 5920 5920 5919 5917 5916 5916 5915 5914 5914 5913 5913 5913 5912 5912 5911 5910 5909 5909 5908 5907 5906 5905 5904 5904 5903 5902 5902 5901 5901 5900 5899 5898 5897 5897 5896 5895 5894 5893 5892 5892 5891 5890 5889
5914 5916 5917 5917 5918 5919 5918 5919 5919 5916 5915 5915 5914 5914 5913 5913 5913 5912 5912 5911 5911 5910 5909 5909 5908 5907 5906 5906 5905 5904 5903 5903 5902 5902 5901 5900 5899 5898 5898 5897 5896 5895 5894 5893 5892 5891 5890 5889 5888
5911 5913 5914 5915 5917 5918 5917 5917 5917 5915 5914 5914 5913 5913 5912 5912 5912 5912 5911 5911 5910 5910 5909 5908 5908 5907 5906 5905 5905 5904 5904 5903 5902 5902 5901 5900 5899 5898 5898 5897 5896 5895 5894 5893 5892 5891 5890 5889 5888
5909 5912 5914 5915 5916 5916 5915 5914 5915 5913 5913 5912 5912 5911 5911 5910 5911 5911 5910 5910 5909 5909 5908 5908 5907 5907 5906 5905 5905 5904 5904 5903 5902 5901 5900 5900 5899 5898 5897 5896 5895 5894 5894 5892 5891 5890 5889 5888 5887
5905 5909 5912 5914 5914 5914 5912 5911 5912 5910 5910 5910 5910 5909 5909 5909 5909 5909 5909 5909 5908 5908 5907 5907 5906 5906 5905 5905 5904 5904 5903 5902 5902 5901 5900 5899 5898 5897 5896 5896 5895 5893 5893 5891 5890 5889 5888 5887 5885
5901 5904 5907 5908 5909 5909 5910 5909 5908 5907 5908 5908 5908 5907 5907 5907 5907 5907 5907 5907 5906 5906 5906 5905 5905 5905 5904 5904 5903 5903 5902 5901 5900 5899 5898 5898 5897 5896 5895 5894 5893 5892 5891 5890 5889 5888 5887 5885 5884
5897 5899 5901 5903 5904 5906 5907 5906 5906 5905 5905 5905 5905 5905 5905 5905 5905 5905 5904 5904 5904 5904 5903 5903 5903 5903 5903 5902 5902 5901 5901 5900 5899 5898 5897 5896 5895 5894 5894 5893 5892 5891 5889 5888 5887 5886 5884 5883 5882
5892 5894 5896 5899 5900 5903 5904 5906 5903 5902 5902 5902 5902 5902 5902 5902 5902 5902 5902 5902 5902 5901 5901 5901 5901 5901 5901 5900 5900 5900 5899 5898 5897 5896 5895 5894 5893 5892 5891 5890 5890 5889 5887 5886 5885 5883 5882 5881 5879
5887 5889 5891 5894 5895 5897 5899 5903 5899 5898 5899 5899 5899 5899 5899 5899 5899 5899 5899 5899 5899 5899 5899 5898 5899 5899 5898 5898 5898 5897 5897 5896 5895 5894 5893 5892 5891 5890 5889 5888 5887 5886 5885 5883 5882 5881 5879 5878 5876